| time (UTC) | temp F | wind direction | speed MPH | gust MPH | rain 1hr in | rain 24hr in | rain mn in | humidity % | barometer mb |
| 20260510230043 | 42 | 5 | 2.0 | 9.0 | 0.00 | 0.01 | 0.00 | 100 | 1013.0 |
| 20260510225531 | 42 | 32 | 3.0 | 9.0 | 0.00 | 0.01 | 0.01 | 100 | 1013.1 |
| 20260510225035 | 42 | 25 | 2.0 | 7.0 | 0.00 | 0.01 | 0.01 | 100 | 1013.2 |
| 20260510224553 | 43 | 360 | 2.0 | 7.0 | 0.00 | 0.01 | 0.01 | 100 | 1013.2 |
| 20260510224035 | 43 | 43 | 2.0 | 6.0 | 0.00 | 0.01 | 0.01 | 100 | 1013.2 |
| 20260510223535 | 43 | 10 | 2.0 | 6.0 | 0.00 | 0.01 | 0.01 | 100 | 1013.3 |
| 20260510223106 | 43 | 26 | 2.0 | 8.0 | 0.00 | 0.01 | 0.01 | 100 | 1013.2 |
| 20260510222535 | 43 | 0 | 2.0 | 8.0 | 0.00 | 0.01 | 0.01 | 100 | 1013.4 |
| 20260510222031 | 43 | 352 | 2.0 | 6.0 | 0.00 | 0.01 | 0.01 | 100 | 1013.3 |
| 20260510221540 | 43 | 21 | 3.0 | 6.0 | 0.00 | 0.01 | 0.01 | 100 | 1013.4 |
| 20260510221032 | 44 | 13 | 2.0 | 6.0 | 0.00 | 0.01 | 0.01 | 100 | 1013.5 |
| 20260510220534 | 44 | 349 | 2.0 | 7.0 | 0.00 | 0.01 | 0.01 | 100 | 1013.4 |
| 20260510220048 | 44 | 28 | 2.0 | 8.0 | 0.00 | 0.01 | 0.01 | 100 | 1013.5 |
| 20260510215532 | 44 | 5 | 3.0 | 8.0 | 0.00 | 0.01 | 0.01 | 100 | 1013.5 |
| 20260510215031 | 44 | 55 | 3.0 | 8.0 | 0.00 | 0.01 | 0.01 | 100 | 1013.5 |
| 20260510214542 | 44 | 38 | 2.0 | 9.0 | 0.00 | 0.01 | 0.01 | 100 | 1013.5 |
| 20260510214032 | 45 | 53 | 3.0 | 9.0 | 0.00 | 0.01 | 0.01 | 100 | 1013.6 |
| 20260510213537 | 45 | 9 | 2.0 | 9.0 | 0.00 | 0.01 | 0.01 | 100 | 1013.6 |
| 20260510213057 | 45 | 40 | 3.0 | 11.0 | 0.00 | 0.01 | 0.01 | 100 | 1013.7 |
| 20260510212535 | 45 | 45 | 2.0 | 11.0 | 0.00 | 0.01 | 0.01 | 100 | 1013.6 |
| 20260510212038 | 45 | 52 | 3.0 | 11.0 | 0.00 | 0.01 | 0.01 | 100 | 1013.7 |
| 20260510211549 | 45 | 31 | 4.0 | 11.0 | 0.00 | 0.01 | 0.01 | 100 | 1013.7 |
| 20260510211031 | 45 | 37 | 3.0 | 11.0 | 0.00 | 0.01 | 0.01 | 100 | 1013.7 |
| 20260510210531 | 46 | 42 | 4.0 | 11.0 | 0.00 | 0.01 | 0.01 | 100 | 1013.7 |
| 20260510210049 | 46 | 11 | 3.0 | 12.0 | 0.00 | 0.01 | 0.01 | 100 | 1013.7 |
| 20260510205535 | 46 | 61 | 3.0 | 12.0 | 0.00 | 0.01 | 0.01 | 100 | 1013.6 |
| 20260510205032 | 46 | 44 | 3.0 | 12.0 | 0.00 | 0.01 | 0.01 | 100 | 1013.7 |
| 20260510204553 | 46 | 55 | 4.0 | 9.0 | 0.00 | 0.01 | 0.01 | 100 | 1013.6 |
| 20260510204031 | 46 | 18 | 3.0 | 8.0 | 0.00 | 0.01 | 0.01 | 100 | 1013.6 |
| 20260510203531 | 46 | 360 | 3.0 | 8.0 | 0.00 | 0.01 | 0.01 | 100 | 1013.6 |
| 20260510203042 | 47 | 40 | 2.0 | 9.0 | 0.00 | 0.01 | 0.01 | 100 | 1013.6 |
| 20260510202534 | 47 | 54 | 3.0 | 9.0 | 0.00 | 0.01 | 0.01 | 100 | 1013.6 |
| 20260510202035 | 47 | 30 | 3.0 | 8.0 | 0.00 | 0.01 | 0.01 | 100 | 1013.7 |
| 20260510201549 | 47 | 74 | 2.0 | 8.0 | 0.00 | 0.01 | 0.01 | 100 | 1013.7 |
| 20260510201035 | 47 | 66 | 2.0 | 9.0 | 0.00 | 0.01 | 0.01 | 100 | 1013.7 |
| 20260510200535 | 47 | 44 | 2.0 | 9.0 | 0.00 | 0.01 | 0.01 | 100 | 1013.6 |
| 20260510200046 | 48 | 48 | 3.0 | 10.0 | 0.00 | 0.01 | 0.01 | 100 | 1013.5 |
| 20260510195535 | 48 | 23 | 3.0 | 10.0 | 0.00 | 0.01 | 0.01 | 100 | 1013.4 |
| 20260510195035 | 48 | 46 | 4.0 | 10.0 | 0.00 | 0.01 | 0.01 | 100 | 1013.4 |
| 20260510194544 | 48 | 15 | 3.0 | 10.0 | 0.00 | 0.01 | 0.01 | 100 | 1013.2 |
| 20260510194035 | 48 | 16 | 3.0 | 10.0 | 0.00 | 0.01 | 0.01 | 100 | 1013.3 |
| 20260510193535 | 48 | 19 | 3.0 | 11.0 | 0.00 | 0.01 | 0.01 | 100 | 1013.2 |
| 20260510193044 | 49 | 15 | 3.0 | 12.0 | 0.00 | 0.01 | 0.01 | 100 | 1013.2 |
| 20260510192532 | 49 | 78 | 5.0 | 12.0 | 0.00 | 0.01 | 0.01 | 100 | 1013.3 |
| 20260510192034 | 49 | 346 | 3.0 | 12.0 | 0.00 | 0.01 | 0.01 | 100 | 1013.3 |
| 20260510191545 | 49 | 74 | 4.0 | 12.0 | 0.00 | 0.01 | 0.01 | 100 | 1013.3 |
| 20260510191032 | 49 | 350 | 5.0 | 12.0 | 0.00 | 0.01 | 0.01 | 100 | 1013.3 |
| 20260510190535 | 50 | 32 | 3.0 | 10.0 | 0.00 | 0.01 | 0.01 | 100 | 1013.2 |
| 20260510190049 | 50 | 59 | 4.0 | 10.0 | 0.00 | 0.01 | 0.01 | 100 | 1013.3 |
| 20260510185531 | 50 | 38 | 3.0 | 12.0 | 0.00 | 0.01 | 0.01 | 100 | 1013.3 |
| 20260510185035 | 50 | 9 | 5.0 | 12.0 | 0.00 | 0.01 | 0.01 | 100 | 1013.2 |
| 20260510184544 | 50 | 22 | 3.0 | 10.0 | 0.00 | 0.00 | 0.00 | 100 | 1013.3 |
| 20260510184035 | 50 | 44 | 3.0 | 11.0 | 0.00 | 0.00 | 0.00 | 100 | 1013.5 |
| 20260510183534 | 50 | 44 | 4.0 | 11.0 | 0.00 | 0.00 | 0.00 | 100 | 1013.4 |
| 20260510183050 | 50 | 5 | 3.0 | 9.0 | 0.00 | 0.00 | 0.00 | 100 | 1013.4 |
| 20260510182532 | 50 | 78 | 4.0 | 10.0 | 0.00 | 0.00 | 0.00 | 100 | 1013.4 |
| 20260510182034 | 50 | 22 | 4.0 | 11.0 | 0.00 | 0.00 | 0.00 | 100 | 1013.5 |
| 20260510181601 | 49 | 57 | 4.0 | 11.0 | 0.00 | 0.00 | 0.00 | 100 | 1013.5 |
| 20260510181035 | 49 | 34 | 5.0 | 11.0 | 0.00 | 0.00 | 0.00 | 100 | 1013.6 |
| 20260510180531 | 49 | 62 | 3.0 | 12.0 | 0.00 | 0.00 | 0.00 | 100 | 1013.6 |
| 20260510180049 | 49 | 13 | 4.0 | 12.0 | 0.00 | 0.00 | 0.00 | 100 | 1013.6 |
| 20260510175535 | 49 | 5 | 3.0 | 11.0 | 0.00 | 0.00 | 0.00 | 100 | 1013.5 |
| 20260510175031 | 49 | 58 | 3.0 | 11.0 | 0.00 | 0.00 | 0.00 | 100 | 1013.6 |
| 20260510174554 | 49 | 36 | 2.0 | 11.0 | 0.00 | 0.00 | 0.00 | 100 | 1013.6 |
| 20260510174031 | 49 | 39 | 4.0 | 12.0 | 0.00 | 0.00 | 0.00 | 100 | 1013.7 |
| 20260510173531 | 50 | 30 | 5.0 | 12.0 | 0.00 | 0.00 | 0.00 | 100 | 1013.6 |
| 20260510173038 | 50 | 56 | 4.0 | 12.0 | 0.00 | 0.00 | 0.00 | 100 | 1013.8 |
| 20260510172531 | 50 | 27 | 5.0 | 14.0 | 0.00 | 0.00 | 0.00 | 100 | 1013.6 |
| 20260510172035 | 50 | 56 | 4.0 | 14.0 | 0.00 | 0.00 | 0.00 | 100 | 1013.8 |
| 20260510171536 | 50 | 80 | 6.0 | 14.0 | 0.00 | 0.00 | 0.00 | 100 | 1013.7 |
| 20260510171031 | 50 | 69 | 6.0 | 14.0 | 0.00 | 0.00 | 0.00 | 100 | 1013.9 |
| 20260510170533 | 50 | 49 | 6.0 | 14.0 | 0.00 | 0.00 | 0.00 | 100 | 1014.0 |
| 20260510170043 | 50 | 67 | 7.0 | 14.0 | 0.00 | 0.00 | 0.00 | 100 | 1014.0 |
| 20260510165532 | 50 | 360 | 5.0 | 12.0 | 0.00 | 0.00 | 0.00 | 100 | 1014.0 |
| 20260510165032 | 50 | 56 | 4.0 | 12.0 | 0.00 | 0.00 | 0.00 | 100 | 1014.1 |
| 20260510164545 | 50 | 74 | 5.0 | 12.0 | 0.00 | 0.00 | 0.00 | 100 | 1014.1 |
| 20260510164031 | 50 | 5 | 4.0 | 14.0 | 0.00 | 0.00 | 0.00 | 100 | 1014.1 |
| 20260510163531 | 50 | 9 | 4.0 | 14.0 | 0.00 | 0.00 | 0.00 | 100 | 1014.3 |
| 20260510163043 | 50 | 46 | 5.0 | 14.0 | 0.00 | 0.00 | 0.00 | 100 | 1014.3 |
| 20260510162537 | 50 | 28 | 4.0 | 11.0 | 0.00 | 0.00 | 0.00 | 100 | 1014.3 |
| 20260510162035 | 50 | 77 | 5.0 | 11.0 | 0.00 | 0.00 | 0.00 | 100 | 1014.3 |
| 20260510161549 | 50 | 81 | 4.0 | 11.0 | 0.00 | 0.00 | 0.00 | 100 | 1014.5 |
| 20260510161035 | 50 | 27 | 4.0 | 10.0 | 0.00 | 0.00 | 0.00 | 100 | 1014.5 |
| 20260510160531 | 50 | 5 | 3.0 | 12.0 | 0.00 | 0.00 | 0.00 | 100 | 1014.5 |
| 20260510160042 | 50 | 56 | 3.0 | 13.0 | 0.00 | 0.00 | 0.00 | 100 | 1014.6 |
| 20260510155531 | 50 | 342 | 3.0 | 13.0 | 0.00 | 0.00 | 0.00 | 100 | 1014.7 |
| 20260510155034 | 50 | 360 | 5.0 | 12.0 | 0.00 | 0.00 | 0.00 | 100 | 1014.7 |
| 20260510154543 | 50 | 153 | 3.0 | 11.0 | 0.00 | 0.00 | 0.00 | 100 | 1014.7 |
| 20260510154034 | 49 | 45 | 5.0 | 11.0 | 0.00 | 0.00 | 0.00 | 100 | 1014.8 |
| 20260510153534 | 49 | 5 | 3.0 | 12.0 | 0.00 | 0.00 | 0.00 | 100 | 1014.7 |
| 20260510153048 | 49 | 38 | 4.0 | 12.0 | 0.00 | 0.00 | 0.00 | 100 | 1014.9 |
| 20260510152531 | 49 | 42 | 4.0 | 9.0 | 0.00 | 0.00 | 0.00 | 100 | 1014.9 |
| 20260510152031 | 49 | 360 | 3.0 | 9.0 | 0.00 | 0.00 | 0.00 | 100 | 1014.9 |
| 20260510151547 | 49 | 62 | 4.0 | 10.0 | 0.00 | 0.00 | 0.00 | 100 | 1015.0 |
| 20260510151035 | 49 | 9 | 4.0 | 10.0 | 0.00 | 0.00 | 0.00 | 100 | 1015.1 |
| 20260510150531 | 49 | 57 | 4.0 | 10.0 | 0.00 | 0.00 | 0.00 | 100 | 1015.1 |
| 20260510150045 | 49 | 36 | 5.0 | 10.0 | 0.00 | 0.00 | 0.00 | 100 | 1015.2 |
| 20260510145531 | 49 | 11 | 5.0 | 11.0 | 0.00 | 0.00 | 0.00 | 100 | 1015.2 |
| 20260510145034 | 49 | 35 | 3.0 | 11.0 | 0.00 | 0.00 | 0.00 | 100 | 1015.2 |
| 20260510144551 | 49 | 18 | 3.0 | 11.0 | 0.00 | 0.00 | 0.00 | 100 | 1015.3 |
| 20260510144031 | 49 | 61 | 4.0 | 13.0 | 0.00 | 0.00 | 0.00 | 100 | 1015.4 |
| 20260510143533 | 49 | 36 | 4.0 | 13.0 | 0.00 | 0.00 | 0.00 | 100 | 1015.3 |
| 20260510143035 | 50 | 11 | 3.0 | 10.0 | 0.00 | 0.00 | 0.00 | 100 | 1015.4 |
| 20260510142535 | 49 | 70 | 4.0 | 12.0 | 0.00 | 0.00 | 0.00 | 100 | 1015.4 |
| 20260510142032 | 49 | 47 | 4.0 | 12.0 | 0.00 | 0.00 | 0.00 | 100 | 1015.5 |
| 20260510141543 | 49 | 52 | 5.0 | 12.0 | 0.00 | 0.00 | 0.00 | 100 | 1015.5 |
| 20260510141032 | 49 | 31 | 4.0 | 10.0 | 0.00 | 0.00 | 0.00 | 100 | 1015.6 |
| 20260510140531 | 49 | 34 | 3.0 | 9.0 | 0.00 | 0.00 | 0.00 | 100 | 1015.5 |
| 20260510140043 | 49 | 34 | 3.0 | 9.0 | 0.00 | 0.00 | 0.00 | 100 | 1015.7 |
| 20260510135534 | 49 | 360 | 2.0 | 12.0 | 0.00 | 0.00 | 0.00 | 100 | 1015.6 |
| 20260510135031 | 50 | 49 | 3.0 | 12.0 | 0.00 | 0.00 | 0.00 | 100 | 1015.7 |
| 20260510134545 | 50 | 34 | 4.0 | 9.0 | 0.00 | 0.00 | 0.00 | 100 | 1015.7 |
| 20260510134031 | 50 | 18 | 2.0 | 10.0 | 0.00 | 0.00 | 0.00 | 100 | 1015.7 |
| 20260510133531 | 50 | 87 | 2.0 | 10.0 | 0.00 | 0.00 | 0.00 | 100 | 1015.5 |
| 20260510133037 | 50 | 360 | 4.0 | 14.0 | 0.00 | 0.00 | 0.00 | 100 | 1015.5 |
| 20260510132531 | 50 | 41 | 5.0 | 16.0 | 0.00 | 0.00 | 0.00 | 100 | 1015.5 |
| 20260510132032 | 51 | 5 | 4.0 | 16.0 | 0.00 | 0.00 | 0.00 | 100 | 1015.4 |
| 20260510131543 | 51 | 42 | 7.0 | 16.0 | 0.00 | 0.00 | 0.00 | 100 | 1015.4 |
| 20260510131032 | 51 | 53 | 5.0 | 14.0 | 0.00 | 0.00 | 0.00 | 100 | 1015.3 |
| 20260510130533 | 51 | 295 | 4.0 | 14.0 | 0.00 | 0.00 | 0.00 | 100 | 1015.5 |
| 20260510130045 | 51 | 26 | 5.0 | 13.0 | 0.00 | 0.00 | 0.00 | 100 | 1015.6 |
| 20260510125534 | 52 | 40 | 4.0 | 15.0 | 0.00 | 0.00 | 0.00 | 100 | 1015.6 |
| 20260510125032 | 52 | 30 | 5.0 | 15.0 | 0.00 | 0.00 | 0.00 | 100 | 1015.7 |
| 20260510124554 | 52 | 14 | 5.0 | 13.0 | 0.00 | 0.00 | 0.00 | 100 | 1015.7 |
| 20260510124032 | 52 | 66 | 6.0 | 17.0 | 0.00 | 0.00 | 0.00 | 100 | 1015.7 |
| 20260510123533 | 52 | 5 | 5.0 | 17.0 | 0.00 | 0.00 | 0.00 | 100 | 1015.8 |
| 20260510123042 | 52 | 42 | 5.0 | 12.0 | 0.00 | 0.00 | 0.00 | 100 | 1016.0 |
| 20260510122534 | 52 | 352 | 5.0 | 12.0 | 0.00 | 0.00 | 0.00 | 100 | 1016.0 |
| 20260510122032 | 53 | 44 | 4.0 | 10.0 | 0.00 | 0.00 | 0.00 | 100 | 1016.1 |
| 20260510121541 | 53 | 19 | 4.0 | 11.0 | 0.00 | 0.00 | 0.00 | 100 | 1016.1 |
| 20260510121032 | 53 | 43 | 4.0 | 13.0 | 0.00 | 0.00 | 0.00 | 100 | 1016.2 |
| 20260510120532 | 53 | 74 | 5.0 | 15.0 | 0.00 | 0.00 | 0.00 | 100 | 1016.2 |
| 20260510120044 | 53 | 332 | 6.0 | 15.0 | 0.00 | 0.00 | 0.00 | 100 | 1016.1 |
| 20260510115531 | 53 | 41 | 4.0 | 15.0 | 0.00 | 0.00 | 0.00 | 100 | 1016.1 |
| 20260510115032 | 53 | 30 | 6.0 | 15.0 | 0.00 | 0.00 | 0.00 | 100 | 1016.2 |
| 20260510114542 | 53 | 360 | 4.0 | 15.0 | 0.00 | 0.00 | 0.00 | 100 | 1016.2 |
| 20260510114031 | 53 | 19 | 6.0 | 15.0 | 0.00 | 0.00 | 0.00 | 100 | 1016.2 |
| 20260510113531 | 53 | 137 | 6.0 | 15.0 | 0.00 | 0.00 | 0.00 | 100 | 1016.2 |
| 20260510113044 | 53 | 50 | 4.0 | 16.0 | 0.00 | 0.00 | 0.00 | 100 | 1016.2 |
| 20260510112534 | 53 | 5 | 6.0 | 16.0 | 0.00 | 0.00 | 0.00 | 100 | 1016.2 |
| 20260510112032 | 53 | 32 | 4.0 | 14.0 | 0.00 | 0.00 | 0.00 | 100 | 1016.3 |
| 20260510111543 | 53 | 19 | 4.0 | 19.0 | 0.00 | 0.00 | 0.00 | 100 | 1016.3 |
| 20260510111031 | 53 | 28 | 5.0 | 19.0 | 0.00 | 0.00 | 0.00 | 100 | 1016.3 |
| 20260510110532 | 53 | 37 | 5.0 | 16.0 | 0.00 | 0.00 | 0.00 | 100 | 1016.4 |
| 20260510110038 | 53 | 22 | 5.0 | 15.0 | 0.00 | 0.00 | 0.00 | 100 | 1016.3 |
| 20260510105533 | 53 | 57 | 5.0 | 15.0 | 0.00 | 0.00 | 0.00 | 100 | 1016.4 |
| 20260510105035 | 53 | 102 | 5.0 | 17.0 | 0.00 | 0.00 | 0.00 | 100 | 1016.5 |
| 20260510104542 | 53 | 63 | 7.0 | 17.0 | 0.00 | 0.00 | 0.00 | 100 | 1016.5 |
| 20260510104031 | 53 | 325 | 5.0 | 13.0 | 0.00 | 0.00 | 0.00 | 100 | 1016.6 |
| 20260510103534 | 53 | 9 | 4.0 | 10.0 | 0.00 | 0.00 | 0.00 | 100 | 1016.5 |
| 20260510103048 | 52 | 18 | 4.0 | 14.0 | 0.00 | 0.00 | 0.00 | 100 | 1016.5 |
| 20260510102532 | 52 | 49 | 5.0 | 16.0 | 0.00 | 0.00 | 0.00 | 100 | 1016.7 |
| 20260510102032 | 52 | 52 | 6.0 | 16.0 | 0.00 | 0.00 | 0.00 | 100 | 1016.6 |
| 20260510101544 | 52 | 62 | 6.0 | 15.0 | 0.00 | 0.00 | 0.00 | 100 | 1016.5 |
| 20260510101031 | 52 | 63 | 6.0 | 17.0 | 0.00 | 0.00 | 0.00 | 100 | 1016.5 |
| 20260510100531 | 51 | 79 | 5.0 | 17.0 | 0.00 | 0.00 | 0.00 | 100 | 1016.5 |
| 20260510100109 | 51 | 343 | 5.0 | 15.0 | 0.00 | 0.00 | 0.00 | 100 | 1016.4 |
| 20260510095532 | 51 | 24 | 6.0 | 16.0 | 0.00 | 0.00 | 0.00 | 100 | 1016.5 |
| 20260510095031 | 51 | 54 | 6.0 | 16.0 | 0.00 | 0.00 | 0.00 | 100 | 1016.5 |
| 20260510094541 | 51 | 104 | 4.0 | 14.0 | 0.00 | 0.00 | 0.00 | 100 | 1016.6 |
| 20260510094033 | 51 | 39 | 3.0 | 14.0 | 0.00 | 0.00 | 0.00 | 100 | 1016.6 |
| 20260510093532 | 50 | 40 | 5.0 | 11.0 | 0.00 | 0.00 | 0.00 | 100 | 1016.5 |
| 20260510093048 | 50 | 56 | 5.0 | 12.0 | 0.00 | 0.00 | 0.00 | 100 | 1016.5 |
| 20260510092532 | 50 | 28 | 5.0 | 14.0 | 0.00 | 0.00 | 0.00 | 100 | 1016.6 |
| 20260510092031 | 50 | 5 | 4.0 | 14.0 | 0.00 | 0.00 | 0.00 | 100 | 1016.6 |
| 20260510091544 | 50 | 268 | 6.0 | 14.0 | 0.00 | 0.00 | 0.00 | 100 | 1016.7 |
| 20260510091033 | 51 | 21 | 4.0 | 13.0 | 0.00 | 0.00 | 0.00 | 100 | 1016.8 |
| 20260510090533 | 51 | 28 | 5.0 | 13.0 | 0.00 | 0.00 | 0.00 | 100 | 1016.7 |
| 20260510090045 | 51 | 15 | 3.0 | 13.0 | 0.00 | 0.00 | 0.00 | 100 | 1016.7 |
| 20260510085535 | 51 | 352 | 5.0 | 12.0 | 0.00 | 0.00 | 0.00 | 100 | 1016.8 |
| 20260510085031 | 51 | 24 | 2.0 | 13.0 | 0.00 | 0.00 | 0.00 | 100 | 1017.0 |
| 20260510084543 | 50 | 26 | 5.0 | 13.0 | 0.00 | 0.00 | 0.00 | 100 | 1017.0 |
| 20260510084031 | 50 | 25 | 4.0 | 12.0 | 0.00 | 0.00 | 0.00 | 100 | 1017.0 |
| 20260510083531 | 50 | 39 | 3.0 | 12.0 | 0.00 | 0.00 | 0.00 | 100 | 1017.0 |
| 20260510083052 | 50 | 82 | 4.0 | 12.0 | 0.00 | 0.00 | 0.00 | 100 | 1016.9 |
| 20260510082531 | 50 | 34 | 3.0 | 12.0 | 0.00 | 0.00 | 0.00 | 100 | 1017.1 |
| 20260510082032 | 50 | 360 | 3.0 | 13.0 | 0.00 | 0.00 | 0.00 | 100 | 1017.1 |
| 20260510081547 | 50 | 20 | 5.0 | 13.0 | 0.00 | 0.00 | 0.00 | 100 | 1017.1 |
| 20260510081031 | 50 | 14 | 2.0 | 9.0 | 0.00 | 0.00 | 0.00 | 100 | 1017.1 |
| 20260510080532 | 50 | 42 | 2.0 | 15.0 | 0.00 | 0.00 | 0.00 | 100 | 1017.0 |
| 20260510080043 | 50 | 346 | 3.0 | 15.0 | 0.00 | 0.00 | 0.00 | 100 | 1017.0 |
| 20260510075533 | 50 | 52 | 5.0 | 15.0 | 0.00 | 0.00 | 0.00 | 100 | 1016.9 |
| 20260510075031 | 50 | 11 | 3.0 | 12.0 | 0.00 | 0.00 | 0.00 | 100 | 1016.8 |
| 20260510074545 | 50 | 5 | 4.0 | 12.0 | 0.00 | 0.00 | 0.00 | 100 | 1016.9 |
| 20260510074035 | 50 | 54 | 5.0 | 11.0 | 0.00 | 0.00 | 0.00 | 100 | 1016.9 |
| 20260510073531 | 50 | 62 | 3.0 | 11.0 | 0.00 | 0.00 | 0.00 | 100 | 1016.9 |
| 20260510073049 | 50 | 94 | 4.0 | 12.0 | 0.00 | 0.00 | 0.00 | 100 | 1017.0 |
| 20260510072531 | 50 | 29 | 4.0 | 12.0 | 0.00 | 0.00 | 0.00 | 100 | 1017.0 |
| 20260510072034 | 50 | 17 | 3.0 | 9.0 | 0.00 | 0.00 | 0.00 | 100 | 1017.0 |
| 20260510071601 | 49 | 117 | 4.0 | 11.0 | 0.00 | 0.00 | 0.00 | 100 | 1016.9 |
| 20260510071031 | 49 | 46 | 4.0 | 11.0 | 0.00 | 0.00 | 0.00 | 100 | 1017.1 |
| 20260510070532 | 49 | 22 | 3.0 | 11.0 | 0.00 | 0.00 | 0.00 | 100 | 1017.0 |
| 20260510070037 | 49 | 15 | 4.0 | 11.0 | 0.00 | 0.00 | 0.00 | 100 | 1017.0 |
| 20260510065532 | 49 | 59 | 2.0 | 10.0 | 0.00 | 0.00 | 0.00 | 100 | 1017.0 |
| 20260510065035 | 49 | 345 | 3.0 | 12.0 | 0.00 | 0.00 | 0.00 | 100 | 1017.1 |
| 20260510064544 | 49 | 41 | 3.0 | 12.0 | 0.00 | 0.00 | 0.00 | 100 | 1017.1 |
| 20260510064031 | 49 | 352 | 3.0 | 10.0 | 0.00 | 0.00 | 0.00 | 100 | 1017.0 |
| 20260510063531 | 48 | 11 | 3.0 | 10.0 | 0.00 | 0.00 | 0.00 | 100 | 1017.1 |
| 20260510063045 | 48 | 43 | 2.0 | 9.0 | 0.00 | 0.00 | 0.00 | 100 | 1017.1 |
| 20260510062532 | 48 | 59 | 2.0 | 9.0 | 0.00 | 0.00 | 0.00 | 100 | 1017.2 |
| 20260510062032 | 48 | 40 | 3.0 | 9.0 | 0.00 | 0.00 | 0.00 | 100 | 1017.1 |
| 20260510061548 | 48 | 28 | 4.0 | 9.0 | 0.00 | 0.00 | 0.00 | 100 | 1017.1 |
| 20260510061031 | 48 | 31 | 3.0 | 8.0 | 0.00 | 0.00 | 0.00 | 100 | 1017.1 |
| 20260510060533 | 48 | 14 | 2.0 | 10.0 | 0.00 | 0.00 | 0.00 | 100 | 1017.1 |
| 20260510060046 | 48 | 24 | 2.0 | 10.0 | 0.00 | 0.00 | 0.00 | 100 | 1017.0 |
| 20260510055532 | 48 | 12 | 3.0 | 8.0 | 0.00 | 0.00 | 0.00 | 100 | 1017.0 |
| 20260510055032 | 48 | 46 | 3.0 | 9.0 | 0.00 | 0.00 | 0.00 | 100 | 1016.9 |
| 20260510054548 | 48 | 42 | 4.0 | 11.0 | 0.00 | 0.00 | 0.00 | 100 | 1016.9 |
| 20260510054032 | 48 | 71 | 2.0 | 11.0 | 0.00 | 0.00 | 0.00 | 100 | 1016.9 |
| 20260510053531 | 48 | 56 | 4.0 | 11.0 | 0.00 | 0.00 | 0.00 | 100 | 1016.8 |
| 20260510053043 | 48 | 36 | 2.0 | 10.0 | 0.00 | 0.00 | 0.00 | 100 | 1016.8 |
| 20260510052533 | 48 | 47 | 2.0 | 13.0 | 0.00 | 0.00 | 0.00 | 100 | 1017.0 |
| 20260510052031 | 48 | 17 | 3.0 | 13.0 | 0.00 | 0.00 | 0.00 | 100 | 1016.9 |
| 20260510051543 | 48 | 5 | 4.0 | 11.0 | 0.00 | 0.00 | 0.00 | 100 | 1016.8 |
| 20260510051031 | 48 | 36 | 4.0 | 9.0 | 0.00 | 0.00 | 0.00 | 100 | 1016.9 |
| 20260510050531 | 48 | 67 | 3.0 | 10.0 | 0.00 | 0.00 | 0.00 | 100 | 1016.8 |
| 20260510050041 | 48 | 80 | 3.0 | 10.0 | 0.00 | 0.00 | 0.00 | 100 | 1016.8 |
| 20260510045532 | 48 | 22 | 3.0 | 9.0 | 0.00 | 0.00 | 0.00 | 100 | 1016.8 |
| 20260510045031 | 47 | 43 | 2.0 | 10.0 | 0.00 | 0.00 | 0.00 | 100 | 1016.8 |
| 20260510044537 | 47 | 360 | 3.0 | 10.0 | 0.00 | 0.00 | 0.00 | 100 | 1016.7 |
| 20260510044035 | 47 | 53 | 2.0 | 10.0 | 0.00 | 0.00 | 0.00 | 100 | 1016.9 |
| 20260510043532 | 47 | 30 | 3.0 | 10.0 | 0.00 | 0.00 | 0.00 | 100 | 1016.8 |
| 20260510043047 | 47 | 61 | 3.0 | 10.0 | 0.00 | 0.00 | 0.00 | 100 | 1016.7 |
| 20260510042531 | 47 | 32 | 2.0 | 12.0 | 0.00 | 0.00 | 0.00 | 100 | 1016.7 |
| 20260510042034 | 47 | 11 | 4.0 | 12.0 | 0.00 | 0.00 | 0.00 | 100 | 1016.7 |
| 20260510041543 | 47 | 30 | 4.0 | 9.0 | 0.00 | 0.00 | 0.00 | 100 | 1016.8 |
| 20260510041031 | 47 | 352 | 4.0 | 11.0 | 0.00 | 0.00 | 0.00 | 100 | 1016.9 |
| 20260510040535 | 47 | 352 | 3.0 | 11.0 | 0.00 | 0.00 | 0.00 | 100 | 1016.8 |
| 20260510040042 | 47 | 13 | 4.0 | 9.0 | 0.00 | 0.00 | 0.00 | 100 | 1017.1 |
| 20260510035531 | 48 | 43 | 4.0 | 11.0 | 0.00 | 0.00 | 0.00 | 100 | 1017.0 |
| 20260510035033 | 48 | 335 | 4.0 | 11.0 | 0.00 | 0.00 | 0.00 | 100 | 1017.1 |
| 20260510034547 | 48 | 347 | 4.0 | 9.0 | 0.00 | 0.00 | 0.00 | 100 | 1017.1 |
| 20260510034033 | 48 | 5 | 3.0 | 12.0 | 0.00 | 0.00 | 0.00 | 100 | 1017.0 |
| 20260510033531 | 48 | 10 | 5.0 | 12.0 | 0.00 | 0.00 | 0.00 | 100 | 1017.1 |
| 20260510033100 | 48 | 39 | 3.0 | 10.0 | 0.00 | 0.00 | 0.00 | 100 | 1017.1 |
| 20260510032535 | 48 | 351 | 3.0 | 10.0 | 0.00 | 0.00 | 0.00 | 100 | 1017.1 |
| 20260510032032 | 48 | 15 | 3.0 | 8.0 | 0.00 | 0.00 | 0.00 | 100 | 1017.1 |
| 20260510031549 | 48 | 25 | 2.0 | 9.0 | 0.00 | 0.00 | 0.00 | 100 | 1017.2 |
| 20260510031031 | 48 | 360 | 3.0 | 9.0 | 0.00 | 0.00 | 0.00 | 100 | 1017.3 |
| 20260510030531 | 48 | 57 | 2.0 | 11.0 | 0.00 | 0.00 | 0.00 | 100 | 1017.2 |
| 20260510030044 | 48 | 120 | 3.0 | 11.0 | 0.00 | 0.00 | 0.00 | 100 | 1017.2 |
| 20260510025532 | 48 | 86 | 4.0 | 11.0 | 0.00 | 0.00 | 0.00 | 100 | 1017.2 |
| 20260510025031 | 48 | 304 | 3.0 | 9.0 | 0.00 | 0.00 | 0.00 | 100 | 1017.2 |
| 20260510024545 | 48 | 29 | 3.0 | 10.0 | 0.00 | 0.00 | 0.00 | 100 | 1017.1 |
| 20260510024032 | 48 | 51 | 2.0 | 11.0 | 0.00 | 0.00 | 0.00 | 100 | 1017.1 |
| 20260510023533 | 49 | 14 | 4.0 | 12.0 | 0.00 | 0.00 | 0.00 | 100 | 1017.2 |
| 20260510023044 | 49 | 29 | 4.0 | 13.0 | 0.00 | 0.00 | 0.00 | 100 | 1017.0 |
| 20260510022533 | 49 | 35 | 4.0 | 13.0 | 0.00 | 0.00 | 0.00 | 100 | 1017.1 |
| 20260510022033 | 49 | 16 | 5.0 | 11.0 | 0.00 | 0.00 | 0.00 | 100 | 1017.0 |
| 20260510021544 | 49 | 30 | 4.0 | 11.0 | 0.00 | 0.00 | 0.00 | 100 | 1017.1 |
| 20260510021031 | 49 | 11 | 5.0 | 11.0 | 0.00 | 0.00 | 0.00 | 100 | 1017.1 |
| 20260510020531 | 49 | 31 | 4.0 | 10.0 | 0.00 | 0.00 | 0.00 | 100 | 1017.1 |
| 20260510020045 | 49 | 23 | 3.0 | 11.0 | 0.00 | 0.00 | 0.00 | 100 | 1017.2 |
| 20260510015532 | 49 | 130 | 3.0 | 11.0 | 0.00 | 0.00 | 0.00 | 100 | 1017.2 |
| 20260510015033 | 49 | 74 | 4.0 | 13.0 | 0.00 | 0.00 | 0.00 | 100 | 1017.2 |
| 20260510014550 | 49 | 30 | 4.0 | 16.0 | 0.00 | 0.00 | 0.00 | 100 | 1017.1 |
| 20260510014032 | 50 | 53 | 4.0 | 16.0 | 0.00 | 0.00 | 0.00 | 100 | 1017.3 |
| 20260510013533 | 50 | 43 | 5.0 | 16.0 | 0.00 | 0.00 | 0.00 | 100 | 1017.2 |
| 20260510013038 | 50 | 9 | 5.0 | 12.0 | 0.00 | 0.00 | 0.00 | 100 | 1017.2 |
| 20260510012532 | 50 | 74 | 4.0 | 11.0 | 0.00 | 0.00 | 0.00 | 100 | 1017.3 |
| 20260510012033 | 50 | 26 | 4.0 | 8.0 | 0.00 | 0.00 | 0.00 | 100 | 1017.2 |
| 20260510011553 | 50 | 25 | 2.0 | 11.0 | 0.00 | 0.00 | 0.00 | 100 | 1017.3 |
| 20260510011032 | 50 | 51 | 4.0 | 11.0 | 0.00 | 0.00 | 0.00 | 100 | 1017.3 |
| 20260510010531 | 50 | 69 | 4.0 | 11.0 | 0.00 | 0.00 | 0.00 | 100 | 1017.4 |
| 20260510010043 | 50 | 47 | 3.0 | 9.0 | 0.00 | 0.00 | 0.00 | 100 | 1017.4 |
| 20260510005533 | 50 | 46 | 3.0 | 9.0 | 0.00 | 0.00 | 0.00 | 100 | 1017.4 |
| 20260510005031 | 50 | 9 | 2.0 | 10.0 | 0.00 | 0.00 | 0.00 | 100 | 1017.5 |
| 20260510004548 | 50 | 36 | 2.0 | 10.0 | 0.00 | 0.00 | 0.00 | 100 | 1017.4 |
| 20260510004031 | 51 | 39 | 3.0 | 8.0 | 0.00 | 0.00 | 0.00 | 100 | 1017.3 |
| 20260510003532 | 51 | 11 | 2.0 | 8.0 | 0.00 | 0.00 | 0.00 | 100 | 1017.3 |
| 20260510003103 | 51 | 36 | 3.0 | 10.0 | 0.00 | 0.00 | 0.00 | 100 | 1017.2 |
| 20260510002531 | 51 | 24 | 3.0 | 10.0 | 0.00 | 0.00 | 0.00 | 100 | 1017.3 |
| 20260510002031 | 51 | 46 | 3.0 | 8.0 | 0.00 | 0.00 | 0.00 | 100 | 1017.4 |
| 20260510001540 | 51 | 51 | 2.0 | 8.0 | 0.00 | 0.00 | 0.00 | 100 | 1017.4 |
| 20260510001032 | 51 | 22 | 2.0 | 9.0 | 0.00 | 0.00 | 0.00 | 100 | 1017.4 |
| 20260510000532 | 51 | 5 | 3.0 | 10.0 | 0.00 | 0.00 | 0.00 | 100 | 1017.5 |
| 20260510000046 | 52 | 9 | 3.0 | 10.0 | 0.00 | 0.00 | 0.00 | 100 | 1017.5 |
| 20260509235531 | 52 | 23 | 3.0 | 10.0 | 0.00 | 0.00 | 0.00 | 100 | 1017.5 |
| 20260509235032 | 52 | 76 | 3.0 | 9.0 | 0.00 | 0.00 | 0.00 | 100 | 1017.5 |
| 20260509234559 | 52 | 5 | 3.0 | 10.0 | 0.00 | 0.00 | 0.00 | 100 | 1017.6 |
| 20260509234032 | 52 | 55 | 3.0 | 10.0 | 0.00 | 0.00 | 0.00 | 100 | 1017.6 |
| 20260509233531 | 52 | 15 | 3.0 | 10.0 | 0.00 | 0.00 | 0.00 | 100 | 1017.5 |
| 20260509233042 | 52 | 105 | 3.0 | 10.0 | 0.00 | 0.00 | 0.00 | 100 | 1017.6 |
| 20260509232532 | 52 | 21 | 3.0 | 9.0 | 0.00 | 0.00 | 0.00 | 100 | 1017.6 |
| 20260509232031 | 52 | 68 | 4.0 | 9.0 | 0.00 | 0.00 | 0.00 | 100 | 1017.6 |
| 20260509231547 | 52 | 28 | 3.0 | 9.0 | 0.00 | 0.00 | 0.00 | 100 | 1017.5 |
| 20260509231032 | 52 | 53 | 3.0 | 9.0 | 0.00 | 0.00 | 0.00 | 100 | 1017.6 |
| 20260509230531 | 52 | 5 | 3.0 | 8.0 | 0.00 | 0.00 | 0.00 | 100 | 1017.7 |